This is the latest recevied weather packets stored in our database for station/object N0SWP-3. If no packets are shown the sender has not sent any weather packets the latest 10 day(s).
| Time | Temp. | Humidity | Pressure | Rain* | Wind** | Luminosity | Snow |
|---|---|---|---|---|---|---|---|
| 1777712943 | 5.56° C | 71% | 1020.1 hPa | 0 mm | - | - | - |
| 1777712583 | 6.11° C | 70% | 1020.1 hPa | 0 mm | - | - | - |
| 1777712044 | 6.67° C | 68% | 1020.1 hPa | 0 mm | - | - | - |
| 1777711683 | 6.67° C | 66% | 1020 hPa | 0 mm | - | - | - |
| 1777711143 | 6.67° C | 65% | 1019.9 hPa | 0 mm | - | - | - |
| 1777710783 | 6.67° C | 66% | 1019.8 hPa | 0 mm | - | - | - |
| 1777708084 | 7.78° C | 62% | 1019.8 hPa | 0 mm | - | - | - |
| 1777704798 | 8.33° C | 64% | 1019.8 hPa | 0 mm | - | - | - |
| 1777704303 | 8.33° C | 64% | 1019.7 hPa | 0 mm | - | - | - |
| 1777703403 | 8.89° C | 63% | 1019.8 hPa | 0 mm | - | - | - |
| 1777703358 | 8.89° C | 63% | 1019.9 hPa | 0 mm | - | - | - |
| 1777700343 | 9.44° C | 65% | 1020 hPa | 0 mm | - | - | - |
| 1777700164 | 9.44° C | 65% | 1020 hPa | 0 mm | - | - | - |
| 1777699443 | 8.89° C | 68% | 1019.9 hPa | 0 mm | - | - | - |
| 1777699083 | 8.89° C | 71% | 1019.8 hPa | 0 mm | - | - | - |
| 1777698498 | 8.89° C | 71% | 1019.7 hPa | 0 mm | - | - | - |
| 1777697644 | 9.44° C | 72% | 1019.6 hPa | 0 mm | - | - | - |
| 1777697283 | 9.44° C | 71% | 1019.6 hPa | 0 mm | - | - | - |
| 1777696923 | 10° C | 71% | 1019.5 hPa | 0 mm | - | - | - |
| 1777693097 | 11.11° C | 69% | 1019.3 hPa | 0 mm | - | - | - |
| 1777692783 | 11.11° C | 70% | 1019.3 hPa | 0 mm | - | - | - |
| 1777692603 | 11.11° C | 69% | 1019.2 hPa | 0 mm | - | - | - |
| 1777692423 | 11.11° C | 69% | 1019.2 hPa | 0 mm | - | - | - |
| 1777691523 | 11.67° C | 66% | 1019.2 hPa | 0 mm | - | - | - |
| 1777690803 | 12.22° C | 64% | 1019 hPa | 0 mm | - | - | - |
* Rain latest hour (hover to see other rain measurements)
** Current wind speed in m/s (hover to see current wind gust speed)